Location: St. Louis
(38.6270°N, 90.1994°W)
Time: 13:44:16
(UTC-06:00)

Transit 4A - Pass Details

Date: 30 November 2021
Orbit: 864 x 980 km, 66.8° (Epoch: 16 January)

Event Time Altitude Azimuth Distance (km) Brightness Sun altitude
Rises 05:15:47 0° 331° (NNW) 3,618 - -19.7°
Reaches altitude 10° 05:18:18 10° 331° (NNW) 2,685 - -19.2°
Exits shadow 05:19:38 17° 331° (NNW) 2,205 9.5 -19.0°
Maximum altitude 05:24:37 88° 244° (WSW) 975 7.9 -18.0°
Drops below altitude 10° 05:31:00 10° 155° (SSE) 2,719 10.9 -16.8°
Sets 05:33:34 0° 155° (SSE) 3,666 11.6 -16.4°
